Other Public Products
Issued by NWS Charleston, SC

Current Version | Previous Version | Graphics & Text | Print | Product List | Glossary On
Versions: 1 2 3 4 5 6 7 8 9 10 11 12 13 14 15 16 17 18 19 20 21 22 23 24 25 26 27 28 29 30 31 32 33 34 35 36 37 38 39 40 41 42 43 44 45 46 47 48 49 50
000
FPUS82 KCHS 221112
OPUCHS

TEST...KCHS/KSAV Gateway Observations...TEST
National Weather Service Charleston SC
600 AM EST THU FEB 22 2018

NOTE: "fair" indicates few or no clouds below 12,000 feet with no
significant weather and/or obstructions to visibility.

SCZ050-WAZ558-NCZ071-TXZ119-213-PAZ071-DCZ001-FLZ074-172-MI076-
NYZ176-178-MAZ016-IL014-TNZ027-NJZ106-GAZ044-MD014-221200-

...Gateway Observations for Charleston International...

CITY           SKY/WX    TMP DP  RH WIND       PRES   REMARKS
Chas Airport   FOG       61  60  97 CALM      30.45R VSB 1/2
Seattle        FAIR      29  26  89 N8        30.18S WCI  21
Charlotte      CLOUDY    65  64  97 S7        30.43R
Dallas DFW     DRIZZLE   35  33  92 N10       30.28R FOG     WCI  27
Dallas Love    CLOUDY    35  34  96 N9        30.29R FOG     WCI  28
Philladelphia  CLOUDY    52  35  52 NE14      30.49R
Wash National  CLOUDY    57  41  55 NE14      30.44R
Baltimore      CLOUDY    54  33  45 NE9       30.45R
Miami          CLOUDY    73  69  87 E10       30.31R
Detroit        CLOUDY    31  23  72 NE10      30.58S WCI  22
Newark         CLOUDY    45  37  73 N17       30.54S
Laguardia      CLOUDY    46  35  65 NE14      30.55R
J F K          CLOUDY    48  36  63 N12       30.54R
Boston Logan   CLOUDY    43  23  45 N9        30.59R
Ft. Lauderdale MOCLDY    75  69  81 E18       30.30R
Chicago O`Hare CLOUDY    32  25  75 NE10      30.53S WCI  24
Chicago Midway CLOUDY    33  27  78 NE15      30.52F WCI  23
Houston Bush   CLOUDY    54  53  97 N6        30.18R FOG
Houston Hobby  CLOUDY    54  54 100 N6        30.17R FOG
Nashville      LGT RAIN  52  50  93 S3        30.30R
Atlanta        MOCLDY    63  63 100 SE3       30.40R

$$

GAZ044-118-TXZ119-213-NCZ071-DCZ001-MDZ014-506-PAZ021-071-NJZ106-
NYZ176-178-MAZ106-OHZ011-021-055-MIZ076-KYZ091-ILZ014-INZ047-
MNZ060-ONZ431-221200-

...Gateway Observations for Savannah International...

CITY           SKY/WX    TMP DP  RH WIND       PRES   REMARKS
Savannah Arpt  FOG       62  62 100 CALM      30.44R VSB 1
Atlanta        MOCLDY    63  63 100 SE3       30.40R
Charlotte      CLOUDY    65  64  97 S7        30.43R
Dallas DFW     DRIZZLE   35  33  92 N10       30.28R FOG     WCI  27
Houston Bush   CLOUDY    54  53  97 N6        30.18R FOG
Wash National  CLOUDY    57  41  55 NE14      30.44R
Wash Dulles    CLOUDY    55  46  71 NE12      30.44R
Baltimore      CLOUDY    54  33  45 NE9       30.45R
Philadelphia   CLOUDY    52  35  52 NE14      30.49R
Newark         CLOUDY    45  37  73 N17       30.54S
Laguardia      CLOUDY    46  35  65 NE14      30.55R
J F K          CLOUDY    48  36  63 N12       30.54R
Boston         CLOUDY    43  23  45 N9        30.59R
Pittsburg      LGT RAIN  42  37  82 NE9       30.45S
Akron          LGT RAIN  34  30  85 NE12      30.48S WCI  25
Cleveland      FLURRIES  33  30  88 NE10      30.56R WCI  25
Cincinnati     RAIN      38  38 100 NE16      30.37R FOG     WCI  29
Columbus       RAIN      37  36  98 NE13G18   30.42S WCI  28
Detroit        CLOUDY    31  23  72 NE10      30.58S WCI  22
Chicago O`Hare CLOUDY    32  25  75 NE10      30.53S WCI  24
Minneapolis    MOCLDY     9   6  88 NE5       30.60F WCI   1
Indianapolis   LGT RAIN  38  36  92 NE13      30.37R WCI  30
Toronto Canada MOCLDY    27  21  80 N9        30.64R WCI  17

$$




USA.gov is the U.S. government's official web portal to all federal, state and local government web resources and services.